Weather History for TGPY - March, 2012

Change the Weather History Date:

Wednesday, March 7, 2012

  Actual Average Record
Temperature  
Mean Temperature 80 °F -  
Max Temperature 85 °F 83 °F 89 °F (2005)
Min Temperature 74 °F 74 °F 71 °F (2015)
Cooling Degree Days 14    
Growing Degree Days 30 (Base 50)    
Moisture  
Dew Point 71 °F    
Average Humidity 73    
Maximum Humidity 89    
Minimum Humidity 62    
Precipitation  
Precipitation 0.08 in - - ()
Sea Level Pressure  
Sea Level Pressure 29.96 in    
Wind  
Wind Speed 8 mph ()    
Max Wind Speed 17 mph    
Max Gust Speed 29 mph    
Visibility 6.1 miles    
Events Rain    
Averages and records for this station are not official NWS values.
T = Trace of Precipitation, MM = Missing Value Source: Averaged Metar Reports

Daily Weather History Graph

Daily Weather History Graph

Search for Another Location

Airport or City:

Trip Planner

Search our weather history database for the weather conditions in past years. The results will help you decide how hot, cold, wet, or windy it might be!

Date:

Astronomy

Mar. 07, 2012 Rise Set
Actual Time 6:18 AM AST 6:17 PM AST
Civil Twilight 5:57 AM AST 6:38 PM AST
Nautical Twilight 5:33 AM AST 7:03 PM AST
Astronomical Twilight 5:08 AM AST 7:27 PM AST
Moon 5:44 PM AST (3/7) 5:24 AM AST (3/7)
Length of Visible Light 12h 40m
Length of Day
11h 58m
Waxing Gibbous, 99% of the Moon is Illuminated
Mar 7
Waxing Gibbous
Mar 8
Full
Mar 14
Last Quarter
Mar 22
New
Mar 30
First Quarter

Hourly Weather History & Observations

Time (AST) Temp. Heat Index Dew Point Humidity Pressure Visibility Wind Dir Wind Speed Gust Speed Precip Events Conditions
1:00 AM 77.0 °F - 69.8 °F 78% 29.95 in 6.2 mi East 6.9 mph - N/A   Partly Cloudy
2:00 AM 77.0 °F - 69.8 °F 78% 29.95 in 6.2 mi ENE 8.1 mph - N/A   Scattered Clouds
3:00 AM 77.0 °F - 69.8 °F 78% 29.95 in 6.2 mi East 5.8 mph - N/A   Scattered Clouds
4:00 AM 75.2 °F - 69.8 °F 83% 29.95 in 6.2 mi Variable 2.3 mph - N/A   Partly Cloudy
5:00 AM 76 °F - 69 °F 75% 29.96 in 9 mi East 5.8 mph - -   Widespread Dust
5:00 AM 77.0 °F - 69.8 °F 78% 29.95 in 6.2 mi East 5.8 mph - N/A   Partly Cloudy
6:00 AM 77.0 °F - 69.8 °F 78% 29.95 in 6.2 mi ENE 6.9 mph - N/A   Scattered Clouds
7:00 AM 77.0 °F - 69.8 °F 78% 29.98 in 6.2 mi Calm Calm - N/A   Partly Cloudy
8:00 AM 80 °F - 71 °F 66% 30.00 in 6 mi East 11.5 mph - -   Widespread Dust
8:00 AM 80.6 °F 84.6 °F 71.6 °F 74% 29.98 in 6.2 mi East 11.5 mph - N/A   Partly Cloudy
9:00 AM 82.4 °F 87.2 °F 71.6 °F 70% 30.01 in 6.2 mi East 13.8 mph 26.5 mph N/A   Partly Cloudy
10:00 AM 84.2 °F 89.6 °F 71.6 °F 66% 30.01 in 6.2 mi East 13.8 mph - N/A   Scattered Clouds
11:00 AM 82.4 °F 87.2 °F 71.6 °F 70% 30.01 in 6.2 mi East 13.8 mph 28.8 mph N/A   Scattered Clouds
12:00 PM 86.0 °F 91.8 °F 71.6 °F 62% 29.98 in 6.2 mi East 15.0 mph - N/A   Scattered Clouds
1:00 PM 84.2 °F 89.6 °F 71.6 °F 66% 29.98 in 5.6 mi East 16.1 mph - N/A   Scattered Clouds
2:00 PM 84.2 °F 89.6 °F 71.6 °F 66% 29.95 in 5.6 mi East 16.1 mph - N/A   Scattered Clouds
3:00 PM 84.2 °F 88.4 °F 69.8 °F 62% 29.92 in 6.2 mi East 17.3 mph - N/A   Scattered Clouds
4:00 PM 82.4 °F 86.3 °F 69.8 °F 66% 29.92 in 6.2 mi East 16.1 mph - N/A   Scattered Clouds
5:00 PM 82 °F - 71 °F 62% 29.93 in 6 mi ENE 11.5 mph - -   Widespread Dust
5:00 PM 82.4 °F 87.2 °F 71.6 °F 70% 29.92 in 6.2 mi ENE 11.5 mph - N/A   Scattered Clouds
6:00 PM 80.6 °F 83.9 °F 69.8 °F 70% 29.92 in 6.2 mi ENE 10.4 mph - N/A   Partly Cloudy
7:00 PM 78.8 °F - 69.8 °F 74% 29.95 in 6.2 mi ENE 10.4 mph - N/A   Partly Cloudy
8:00 PM 78 °F - 70 °F 71% 29.95 in 6 mi ENE 9.2 mph - -   Widespread Dust
8:00 PM 78.8 °F - 69.8 °F 74% 29.95 in 6.2 mi ENE 9.2 mph - N/A   Partly Cloudy
9:00 PM 78.8 °F - 69.8 °F 74% 29.95 in 6.2 mi East 9.2 mph - N/A   Partly Cloudy
10:00 PM 75.2 °F - 71.6 °F 89% 29.98 in 5.6 mi East 15.0 mph - N/A Rain Light Rain Showers
11:00 PM 76 °F - 72 °F 83% 29.96 in 4 mi East 9.2 mph - - Rain Light Rain Showers
11:00 PM 75.2 °F - 71.6 °F 89% 29.95 in 4.3 mi East 9.2 mph - N/A Rain Light Rain Showers